Stations météo

réclame
Mon MeteoGroup
Deelen, Pays-Bas (6275): Température de l'air & dewpoint: 19.02.2018 10:00:00 - 25.02.2018 10:00:00 (CET)Deelen, Pays-Bas (6275): Température de l'air 5cm: 19.02.2018 10:00:00 - 25.02.2018 10:00:00 (CET)Deelen, Pays-Bas (6275): Vitesse du vent & gusts: 19.02.2018 10:00:00 - 25.02.2018 10:00:00 (CET)Deelen, Pays-Bas (6275): Direction du vent: 19.02.2018 10:00:00 - 25.02.2018 10:00:00 (CET)Deelen, Pays-Bas (6275): reduced air pressure: 19.02.2018 10:00:00 - 25.02.2018 10:00:00 (CET)Deelen, Pays-Bas (6275): visibility: 19.02.2018 10:00:00 - 25.02.2018 10:00:00 (CET)Deelen, Pays-Bas (6275): Quantités de précipitations: 19.02.2018 10:00:00 - 25.02.2018 10:00:00 (CET)
Date & Time tt [°C] td [°C] tt 5cm [°C] ff [km/h] ff [knt] fx [km/h] fx [knt] dd ppp [hPa] vv [km] rr [mm]
25.02.2018 10:00:00 -3,1 -10,4 -2,1 21 11 36 19 E 1031,9 10 0,0
25.02.2018 09:00:00 -4,3 -9,7 -4,4 16 9 29 16 ENE 1031,9 10 0,0
25.02.2018 08:00:00 -5,4 -10,1 -6,5 15 8 25 14 ENE 1031,4 10 0,0
25.02.2018 07:00:00 -5,0 -10,6 -6,0 18 10 32 18 E 1030,5 10 0,0
25.02.2018 06:00:00 -4,7 -10,1 -5,8 18 10 32 18 ENE 1030,6 10 0,0
25.02.2018 05:00:00 -4,3 -10,0 -5,3 21 11 32 18 ENE 1030,2 10 0,0
25.02.2018 04:00:00 -3,9 -9,9 -5,0 16 9 32 18 ENE 1029,7 10 0,0
25.02.2018 03:00:00 -3,4 -9,7 -4,6 16 9 29 16 ENE 1029,6 10 0,0
25.02.2018 02:00:00 -3,0 -9,5 -4,2 16 9 29 16 ENE 1029,6 10 0,0
25.02.2018 01:00:00 -2,6 -9,5 -3,7 16 9 32 18 ENE 1029,6 10 0,0
25.02.2018 00:00:00 -2,0 -9,3 -3,1 21 11 36 19 ENE 1029,4 10 0,0
24.02.2018 23:00:00 -1,7 -9,2 -3,0 18 10 36 19 ENE 1029,2 10 0,0
24.02.2018 22:00:00 -1,3 -8,8 -2,5 18 10 40 21 ENE 1028,7 10 0,0
24.02.2018 21:00:00 -0,9 -8,4 -2,1 21 11 43 23 ENE 1028,5 10 0,0
24.02.2018 20:00:00 -0,6 -8,3 -1,8 18 10 32 18 ENE 1028,2 10 0,0
24.02.2018 19:00:00 -0,3 -6,7 -1,8 15 8 29 16 ENE 1027,7 10 0,0
24.02.2018 18:00:00 0,5 -6,9 -0,6 18 10 43 23 E 1027,4 10 0,0
24.02.2018 17:00:00 1,8 -6,9 1,7 28 15 43 23 E 1027,0 10 0,0
24.02.2018 16:00:00 2,2 -5,5 2,9 28 15 43 23 - 1027,0 10 0,0
24.02.2018 15:00:00 2,9 -5,0 3,8 29 16 43 23 ENE 1026,9 10 0,0
24.02.2018 14:00:00 2,0 -6,4 3,0 28 15 47 25 ENE 1027,1 10 0,0
24.02.2018 13:00:00 2,2 -7,2 4,1 26 14 50 27 E 1027,2 10 0,0
24.02.2018 12:00:00 1,5 -9,1 2,6 24 13 43 23 - 1027,4 10 0,0
24.02.2018 11:00:00 0,2 -10,1 1,3 26 14 43 23 E 1027,2 10 0,0
24.02.2018 10:00:00 -1,4 -9,9 -0,6 22 12 40 21 E 1027,0 10 0,0
24.02.2018 09:00:00 -2,7 -9,6 -3,0 21 11 32 18 ENE 1026,4 10 0,0
24.02.2018 08:00:00 -3,8 -9,7 -4,7 18 10 32 18 - 1025,9 10 0,0
24.02.2018 07:00:00 -3,8 -9,8 -4,8 18 10 29 16 ENE 1025,5 10 0,0
24.02.2018 06:00:00 -3,5 -10,0 -4,8 16 9 29 16 E 1025,3 10 0,0
24.02.2018 05:00:00 -3,6 -9,9 -4,8 16 9 25 14 ENE 1024,8 10 0,0
24.02.2018 04:00:00 -3,4 -9,9 -4,6 15 8 32 18 ENE 1024,5 10 0,0
24.02.2018 03:00:00 -3,2 -9,8 -4,6 16 9 29 16 ENE 1024,4 10 0,0
24.02.2018 02:00:00 -3,0 -9,5 -4,5 16 9 25 14 E 1024,3 10 0,0
24.02.2018 01:00:00 -2,6 -8,9 -4,0 15 8 29 16 E 1024,3 10 0,0
24.02.2018 00:00:00 -2,2 -7,8 -3,5 18 10 32 18 - 1024,0 10 0,0
23.02.2018 23:00:00 -1,9 -7,0 -3,1 21 11 36 19 - 1023,7 10 0,0
23.02.2018 22:00:00 -1,6 -6,9 -2,8 22 12 32 18 ENE 1023,7 10 0,0
23.02.2018 21:00:00 -1,4 -6,7 -2,6 22 12 32 18 ENE 1023,5 10 0,0
23.02.2018 20:00:00 -0,7 -6,6 -2,1 16 9 29 16 ENE 1023,1 10 0,0
23.02.2018 19:00:00 -0,1 -6,9 -1,4 21 11 29 16 ENE 1022,8 10 0,0
23.02.2018 18:00:00 0,7 -6,9 -0,4 22 12 32 18 ENE 1022,5 10 0,0
23.02.2018 17:00:00 2,1 -6,7 1,8 18 10 36 19 ENE 1022,6 10 0,0
23.02.2018 16:00:00 2,7 -6,2 3,6 21 11 36 19 - 1022,6 10 0,0
23.02.2018 15:00:00 2,8 -6,6 4,1 26 14 43 23 ENE 1023,0 10 0,0
23.02.2018 14:00:00 2,6 -6,3 4,5 24 13 36 19 - 1023,4 10 0,0
23.02.2018 13:00:00 2,0 -5,5 4,1 22 12 43 23 E 1024,0 10 0,0
23.02.2018 12:00:00 1,3 -5,9 3,1 28 15 43 23 ENE 1024,2 10 0,0
23.02.2018 11:00:00 1,0 -5,2 0,5 22 12 36 19 - 1024,5 10 0,0
23.02.2018 10:00:00 0,0 -3,2 0,4 15 8 29 16 ENE 1024,8 8 0,0
23.02.2018 09:00:00 -1,5 -2,8 -2,3 13 7 22 12 ENE 1024,5 4,2 0,0
23.02.2018 08:00:00 -2,3 -3,1 -2,8 13 7 18 10 NE 1024,4 3,0 0,0
23.02.2018 07:00:00 -2,5 -3,2 -2,9 13 7 18 10 NE 1023,9 2,9 0,0
23.02.2018 06:00:00 -3,1 -3,7 -5,3 11 6 14 8 NE 1023,9 2,6 0,0
23.02.2018 05:00:00 -3,0 -3,5 -4,8 9 5 14 8 NNE 1023,7 2,9 0,0
23.02.2018 04:00:00 -2,6 -3,2 -3,9 9 5 14 8 NE 1023,8 3,3 0,0
23.02.2018 03:00:00 -3,4 -3,9 -5,1 11 6 18 10 NE 1024,3 3,5 0,0
23.02.2018 02:00:00 -2,9 -3,8 -4,7 13 7 18 10 NE 1024,5 4,8 0,0
23.02.2018 01:00:00 -2,5 -3,7 -4,4 11 6 22 12 NNE 1024,6 6 0,0
23.02.2018 00:00:00 -1,7 -3,3 -3,3 11 6 18 10 ENE 1024,5 7 0,0
22.02.2018 23:00:00 -2,1 -3,4 -4,1 11 6 18 10 NE 1025,0 7 0,0
22.02.2018 22:00:00 0,4 -2,4 -3,6 13 7 18 10 NE 1025,0 9 0,0
22.02.2018 21:00:00 -1,4 -3,4 -3,2 11 6 22 12 NE 1024,7 10 0,0
22.02.2018 20:00:00 -0,3 -3,1 -1,8 15 8 25 14 NE 1024,7 10 0,0
22.02.2018 19:00:00 -0,1 -3,2 -1,6 15 8 25 14 NE 1024,5 10 0,0
22.02.2018 18:00:00 1,0 -3,3 -0,1 18 10 32 18 NNE 1024,4 10 0,0
22.02.2018 17:00:00 2,8 -4,0 2,6 24 13 32 18 NE 1024,3 10 0,0
22.02.2018 16:00:00 3,6 -4,4 4,5 22 12 36 19 NE 1024,3 10 0,0
22.02.2018 15:00:00 3,6 -4,5 5,3 26 14 40 21 NE 1024,4 10 0,0
22.02.2018 14:00:00 3,6 -4,0 5,8 24 13 36 19 ENE 1025,1 10 0,0
22.02.2018 13:00:00 3,7 -4,2 5,6 24 13 36 19 NE 1025,6 10 0,0
22.02.2018 12:00:00 3,6 -3,5 4,6 24 13 36 19 ENE 1026,0 10 0,0
22.02.2018 11:00:00 1,9 -3,7 3,3 18 10 32 18 NE 1026,3 10 0,0
22.02.2018 10:00:00 0,1 -4,3 0,8 13 7 22 12 NE 1026,4 10 0,0
22.02.2018 09:00:00 -1,8 -4,9 -2,8 15 8 22 12 NE 1026,2 10 0,0
22.02.2018 08:00:00 -3,6 -5,6 -4,9 13 7 18 10 NE 1026,0 10 0,0
22.02.2018 07:00:00 -3,2 -5,6 -4,7 15 8 22 12 NE 1025,7 10 0,0
22.02.2018 06:00:00 -3,3 -5,6 -4,9 15 8 22 12 NE 1025,7 10 0,0
22.02.2018 05:00:00 -3,1 -5,6 -4,7 16 9 22 12 NE 1025,3 10 0,0
22.02.2018 04:00:00 -3,3 -5,5 -5,1 15 8 22 12 NE 1025,4 10 0,0
22.02.2018 03:00:00 -2,8 -5,5 -4,2 15 8 22 12 NE 1025,6 10 0,0
22.02.2018 02:00:00 -2,5 -5,4 -4,2 15 8 22 12 NE 1025,7 10 0,0
22.02.2018 01:00:00 -2,3 -5,2 -4,3 15 8 22 12 NE 1026,1 9 0,0
22.02.2018 00:00:00 -2,4 -4,9 -4,4 15 8 22 12 NE 1026,1 8 0,0
21.02.2018 23:00:00 -2,0 -4,7 -4,3 15 8 25 14 NE 1026,3 9 0,0
21.02.2018 22:00:00 -1,3 -4,4 -2,7 16 9 22 12 NE 1026,2 9 0,0
21.02.2018 21:00:00 -1,4 -4,6 -3,4 13 7 18 10 NE 1026,1 10 0,0
21.02.2018 20:00:00 -1,5 -4,5 -5,0 9 5 14 8 NNE 1025,8 10 0,0
21.02.2018 19:00:00 -1,0 -4,4 -4,3 9 5 18 10 NNE 1025,6 10 0,0
21.02.2018 18:00:00 1,0 -4,1 -0,8 11 6 22 12 NNE 1025,1 10 0,0
21.02.2018 17:00:00 3,0 -3,9 2,7 16 9 25 14 NE 1025,0 10 0,0
21.02.2018 16:00:00 4,0 -3,3 4,9 18 10 25 14 NNE 1025,1 10 0,0
21.02.2018 15:00:00 4,3 -2,9 5,9 15 8 29 16 NNE 1025,5 10 0,0
21.02.2018 14:00:00 4,0 -2,8 6,0 9 5 22 12 NE 1025,9 10 0,0
21.02.2018 13:00:00 3,4 -4,6 5,4 13 7 25 14 - 1026,5 10 0,0
21.02.2018 12:00:00 3,3 -3,4 5,2 16 9 22 12 NE 1026,8 10 0,0
21.02.2018 11:00:00 2,5 -1,5 3,5 9 5 14 8 NNE 1026,9 8 0,0
21.02.2018 10:00:00 -0,1 -2,5 0,6 2 1 4 2 - 1026,6 4,4 0,0
21.02.2018 09:00:00 -2,5 -3,5 -3,9 4 2 7 4 - 1026,6 3,2 0,0
21.02.2018 08:00:00 -4,1 -4,7 -7,3 5 3 11 6 NNW 1026,4 2,9 0,0
21.02.2018 07:00:00 -4,6 -5,2 -7,2 4 2 7 4 E 1026,1 2,8 0,0
21.02.2018 06:00:00 -3,6 -4,5 -5,2 11 6 14 8 NNE 1026,0 3,1 0,0
21.02.2018 05:00:00 -4,1 -5,0 -6,8 8 4 11 6 NE 1025,5 3,9 0,0
21.02.2018 04:00:00 -2,8 -4,2 -4,7 9 5 14 8 NE 1025,5 4,3 0,0
21.02.2018 03:00:00 -2,3 -3,8 -4,2 13 7 18 10 NE 1025,1 5 0,0
21.02.2018 02:00:00 -1,7 -3,7 -3,7 13 7 22 12 NNE 1025,0 5 0,0
21.02.2018 01:00:00 -1,6 -3,5 -3,6 16 9 25 14 NNE 1024,5 7 0,0
21.02.2018 00:00:00 -1,1 -3,3 -2,5 18 10 25 14 NE 1024,3 8 0,0
20.02.2018 23:00:00 -1,1 -2,9 -3,5 16 9 18 10 NE 1023,7 6 0,0
20.02.2018 22:00:00 -1,1 -2,7 -3,1 15 8 18 10 NE 1023,2 6 0,0
20.02.2018 21:00:00 -0,5 -2,2 -2,7 16 9 22 12 NNE 1022,7 6 0,0
20.02.2018 20:00:00 -0,1 -2,5 -3,0 13 7 14 8 NNE 1022,1 7 0,0
20.02.2018 19:00:00 0,5 -2,0 -2,6 13 7 18 10 NNE 1021,4 9 0,0
20.02.2018 18:00:00 2,6 -1,8 1,3 15 8 25 14 NE 1020,7 10 0,0
20.02.2018 17:00:00 4,4 -1,3 4,2 15 8 22 12 NE 1019,8 10 0,0
20.02.2018 16:00:00 4,7 -1,8 5,1 15 8 22 12 NE 1019,4 10 0,0
20.02.2018 15:00:00 5,1 -1,8 5,7 13 7 18 10 NE 1019,3 10 0,0
20.02.2018 14:00:00 5,3 -2,7 6,6 8 4 18 10 ENE 1019,5 10 0,0
20.02.2018 13:00:00 4,9 -2,3 6,5 11 6 18 10 ENE 1019,3 10 0,0
20.02.2018 12:00:00 4,1 -1,5 5,1 9 5 18 10 E 1019,7 10 0,0
20.02.2018 11:00:00 2,6 -1,8 3,3 8 4 14 8 E 1019,5 9 0,0
20.02.2018 10:00:00 0,8 -1,4 0,4 8 4 14 8 NE 1019,6 6 0,0
20.02.2018 09:00:00 0,0 -2,1 -0,4 8 4 14 8 E 1018,7 3,8 0,0
20.02.2018 08:00:00 -1,1 -2,7 -2,4 5 3 11 6 E 1019,1 2,9 0,0
20.02.2018 07:00:00 -3,3 -3,9 -5,0 4 2 7 4 - 1019,0 3,7 0,0
20.02.2018 06:00:00 -4,7 -5,3 -7,1 5 3 7 4 N 1018,9 3,3 0,0
20.02.2018 05:00:00 -4,4 -4,9 -6,3 5 3 11 6 NW 1018,8 2,9 0,0
20.02.2018 04:00:00 -3,5 -4,6 -6,0 4 2 7 4 SW 1018,6 3,4 0,0
20.02.2018 03:00:00 -3,0 -4,1 -5,8 4 2 7 4 - 1018,3 2,9 0,0
20.02.2018 02:00:00 -1,6 -3,2 -3,2 5 3 11 6 E 1018,1 5 0,0
20.02.2018 01:00:00 -1,9 -3,1 -3,8 0 0 11 6 N 1018,4 7 0,0
20.02.2018 00:00:00 -0,1 -2,2 -2,5 5 3 7 4 E 1018,2 6 0,0
19.02.2018 23:00:00 1,1 -1,3 0,4 2 1 7 4 - 1018,3 8 0,0
19.02.2018 22:00:00 1,8 -1,0 1,1 5 3 43 23 E 1018,4 8 0,0
19.02.2018 21:00:00 1,7 -1,1 0,9 5 3 7 4 E 1018,6 8 0,0
19.02.2018 20:00:00 1,9 -1,2 1,3 4 2 7 4 - 1018,5 8 0,0
19.02.2018 19:00:00 2,3 -0,8 1,6 5 3 11 6 ESE 1018,3 9 0,0
19.02.2018 18:00:00 4,0 -0,5 3,3 8 4 11 6 ESE 1018,3 10 0,0
19.02.2018 17:00:00 3,4 -1,5 3,3 8 4 14 8 SE 1018,2 10 0,0
19.02.2018 16:00:00 3,6 -1,5 3,9 9 5 14 8 SSE 1018,4 10 0,0
19.02.2018 15:00:00 3,9 -1,6 4,6 9 5 18 10 SSE 1018,9 10 0,0
19.02.2018 14:00:00 3,4 -1,5 4,3 11 6 - - SE 1019,1 14 -
19.02.2018 13:00:00 3,0 -1,1 3,6 13 7 - - SE 1019,5 10 -
19.02.2018 12:00:00 1,7 -1,3 2,0 13 7 18 10 S 1019,9 11 0,0
19.02.2018 11:00:00 1,2 -1,5 1,6 9 5 14 8 SSE 1020,2 9 0,0
19.02.2018 10:00:00 0,5 -1,6 0,3 8 4 14 8 S 1020,4 8 0,0

tt = Température de l'air
td = dewpoint
tt 5cm = Température de l'air 5cm
ff = Vitesse du vent
fx = gusts
dd = Direction du vent
ppp = reduced air pressure
vv = visibility
rr = Quantités de précipitations

stations d'obs. à proximité